This demonstration page uses our WeatherBlox Daily Observations layout. Learn more.

Left ArrowRight Arrow

39.01783, -85.05884

Hourly Observations for June 18, 2018

Temp ( °F °C ) Dew Point ( °F °C ) Humidity (%) Winds ( mph kmh ) Pressure ( in mb ) Visibility ( mi km ) Precip ( " mm )
12:52 am 00:52 Mostly Cloudy 76 24.4 70 21.1 82 82 SSW 3 6 30.05 1018 10 16 N/A
1:52 am 01:52 Mostly Cloudy 77 25 70 21.1 79 79 WSW 3 6 30.06 1018 9 14 N/A
2:52 am 02:52 Partly Cloudy 73 22.8 70 21.1 90 90 SSW 5 7 30.05 1018 8 13 N/A
3:52 am 03:52 Mostly Clear 74 23.3 69 20.6 85 85 S 3 6 30.04 1017 10 16 N/A
4:52 am 04:52 Partly Cloudy 77 25 69 20.6 77 77 N N/A 30.04 1017 10 16 N/A
5:52 am 05:52 Mostly Clear 75 23.9 69 20.6 82 82 WSW 3 6 30.04 1017 10 16 N/A
6:52 am 06:52 Mostly Cloudy 71 21.7 69 20.6 94 94 S 3 6 30.06 1018 7 11 N/A
7:52 am 07:52 Mostly Cloudy 78 25.6 71 21.7 79 79 SW 5 7 30.06 1018 8 13 N/A
8:52 am 08:52 Mostly Cloudy 82 27.8 72 22.2 72 72 SW 7 11 30.08 1019 9 14 N/A
9:52 am 09:52 Mostly Cloudy 86 30 72 22.2 63 63 W 12 19 30.07 1018 10 16 N/A
10:52 am 10:52 Partly Cloudy 87 30.6 71 21.7 59 59 W 12 19 30.08 1019 10 16 N/A
11:52 am 11:52 Partly Cloudy 90 32.2 70 21.1 52 52 WSW 10 17 30.07 1018 10 16 N/A
12:52 pm 12:52 Partly Cloudy 91 32.8 69 20.6 49 49 SW 13 20 30.07 1018 10 16 N/A
1:52 pm 13:52 Mostly Cloudy 91 32.8 68 20 47 47 W 9 15 30.05 1018 10 16 N/A
2:52 pm 14:52 Partly Cloudy 93 33.9 68 20 44 44 WSW 15 24 30.03 1017 10 16 N/A
3:52 pm 15:52 Mostly Sunny 93 33.9 67 19.4 42 42 SW 10 17 30.01 1016 10 16 N/A
4:52 pm 16:52 Mostly Sunny 92 33.3 67 19.4 44 44 WSW 8 13 29.98 1015 10 16 N/A
5:52 pm 17:52 Mostly Sunny 92 33.3 66 18.9 43 43 WSW 12 19 29.97 1015 10 16 N/A
6:52 pm 18:52 Mostly Sunny 91 32.8 67 19.4 45 45 WSW 8 13 29.95 1014 10 16 N/A
7:52 pm 19:52 Mostly Sunny 89 31.7 70 21.1 53 53 W 10 17 29.95 1014 10 16 N/A
8:52 pm 20:52 Mostly Sunny 85 29.4 70 21.1 61 61 W 6 9 29.96 1015 10 16 N/A
9:52 pm 21:52 Clear 83 28.3 71 21.7 67 67 WSW 5 7 29.97 1015 10 16 N/A
10:52 pm 22:52 Clear 82 27.8 71 21.7 69 69 WSW 6 9 29.99 1016 10 16 N/A
11:52 pm 23:52 Clear 81 27.2 71 21.7 72 72 WSW 8 13 29.98 1015 10 16 N/A

Powered by AerisWeather